Time,TemperatureF,DewpointF,PressureIn,WindDirection,WindDirectionDegrees,WindSpeedMPH,WindSpeedGustMPH,Humidity,HourlyPrecipIn,Conditions,Clouds,dailyrainin,SoftwareType,DateUTC
2013-03-17 06:53:00,0.3,-7.5,29.75,NNE,23,0.0,0.0,69,0.00,,,0.00,WUHU216HW,2013-03-17 14:53:00,
2013-03-17 06:58:00,0.1,-7.7,29.75,NNE,23,0.0,0.0,69,0.00,,,0.00,WUHU216HW,2013-03-17 14:58:00,
2013-03-17 07:03:00,0.0,-7.9,29.75,NNE,23,0.0,0.0,69,0.00,,,0.00,WUHU216HW,2013-03-17 15:03:00,
2013-03-17 07:08:00,0.0,-7.9,29.75,NNE,23,0.0,0.0,69,0.00,,,0.00,WUHU216HW,2013-03-17 15:08:00,
2013-03-17 07:13:00,-0.2,-8.1,29.75,NNE,23,0.0,0.0,69,0.00,,,0.00,WUHU216HW,2013-03-17 15:13:00,
2013-03-17 07:18:00,-0.2,-8.1,29.75,NNE,23,0.0,0.0,69,0.00,,,0.00,WUHU216HW,2013-03-17 15:18:00,
2013-03-17 07:23:00,-0.2,-8.1,29.75,NNE,23,0.0,0.0,69,0.00,,,0.00,WUHU216HW,2013-03-17 15:23:00,
2013-03-17 07:28:00,-0.2,-8.1,29.76,NNE,23,0.0,0.0,69,0.00,,,0.00,WUHU216HW,2013-03-17 15:28:00,
2013-03-17 07:33:00,-0.2,-8.1,29.76,NNE,23,0.0,0.0,69,0.00,,,0.00,WUHU216HW,2013-03-17 15:33:00,
2013-03-17 07:38:00,-0.2,-8.1,29.76,NNE,23,0.0,0.0,69,0.00,,,0.00,WUHU216HW,2013-03-17 15:38:00,
2013-03-17 07:43:00,-0.2,-7.7,29.76,NNE,23,0.0,0.0,70,0.00,,,0.00,WUHU216HW,2013-03-17 15:43:00,
2013-03-17 07:48:00,-0.2,-7.7,29.76,NNE,23,0.0,0.0,70,0.00,,,0.00,WUHU216HW,2013-03-17 15:48:00,
2013-03-17 07:53:00,-0.2,-7.7,29.76,NNE,23,0.0,0.0,70,0.00,,,0.00,WUHU216HW,2013-03-17 15:53:00,
2013-03-17 07:58:00,-0.5,-8.1,29.76,NNE,23,0.0,0.0,70,0.00,,,0.00,WUHU216HW,2013-03-17 15:58:00,
2013-03-17 08:03:00,-0.5,-8.1,29.76,NNE,23,0.0,0.0,70,0.00,,,0.00,WUHU216HW,2013-03-17 16:03:00,
2013-03-17 08:08:00,-0.7,-8.2,29.76,NNE,23,0.0,0.0,70,0.00,,,0.00,WUHU216HW,2013-03-17 16:08:00,
2013-03-17 08:13:00,-0.7,-8.2,29.76,NNE,23,0.0,0.0,70,0.00,,,0.00,WUHU216HW,2013-03-17 16:13:00,
2013-03-17 08:18:00,-0.7,-8.2,29.76,NNE,23,0.0,0.0,70,0.00,,,0.00,WUHU216HW,2013-03-17 16:18:00,
2013-03-17 08:23:00,-0.7,-8.2,29.76,NNE,23,0.0,0.0,70,0.00,,,0.00,WUHU216HW,2013-03-17 16:23:00,
2013-03-17 08:28:00,-1.1,-8.6,29.76,NNE,23,0.0,0.0,70,0.00,,,0.00,WUHU216HW,2013-03-17 16:28:00,
2013-03-17 08:33:00,-1.1,-8.6,29.76,NNE,23,0.0,0.0,70,0.00,,,0.00,WUHU216HW,2013-03-17 16:33:00,
2013-03-17 08:38:00,-1.1,-8.6,29.76,NNE,23,0.0,0.0,70,0.00,,,0.00,WUHU216HW,2013-03-17 16:38:00,
2013-03-17 08:43:00,-1.1,-8.6,29.76,NNE,23,0.0,0.0,70,0.00,,,0.00,WUHU216HW,2013-03-17 16:43:00,
2013-03-17 08:48:00,-1.1,-8.6,29.76,NNE,23,0.0,0.0,70,0.00,,,0.00,WUHU216HW,2013-03-17 16:48:00,
2013-03-17 08:53:00,-1.1,-8.6,29.76,NNE,23,0.0,0.0,70,0.00,,,0.00,WUHU216HW,2013-03-17 16:53:00,
2013-03-17 08:58:00,-1.1,-8.6,29.76,NNE,23,0.0,0.0,70,0.00,,,0.00,WUHU216HW,2013-03-17 16:58:00,
2013-03-17 09:03:00,-0.7,-8.2,29.77,NNE,23,0.0,0.0,70,0.00,,,0.00,WUHU216HW,2013-03-17 17:03:00,
2013-03-17 09:08:00,-0.7,-8.0,29.77,NNE,23,0.0,0.0,71,0.00,,,0.00,WUHU216HW,2013-03-17 17:08:00,
2013-03-17 09:13:00,-0.5,-7.8,29.77,NNE,23,0.0,0.0,71,0.00,,,0.00,WUHU216HW,2013-03-17 17:13:00,
2013-03-17 09:18:00,0.0,-7.3,29.77,NNE,23,0.0,0.0,71,0.00,,,0.00,WUHU216HW,2013-03-17 17:18:00,
2013-03-17 09:23:00,0.1,-7.1,29.76,NNE,23,0.0,0.0,71,0.00,,,0.00,WUHU216HW,2013-03-17 17:23:00,
2013-03-17 09:28:00,0.5,-6.7,29.76,NNE,23,0.0,0.0,71,0.00,,,0.00,WUHU216HW,2013-03-17 17:28:00,
2013-03-17 09:33:00,1.0,-5.9,29.76,NNE,23,0.0,0.0,72,0.00,,,0.00,WUHU216HW,2013-03-17 17:33:00,
2013-03-17 09:38:00,1.5,-5.4,29.76,NNE,23,0.0,0.0,72,0.00,,,0.00,WUHU216HW,2013-03-17 17:38:00,
2013-03-17 09:43:00,1.9,-4.8,29.77,NNE,23,0.0,0.0,73,0.00,,,0.00,WUHU216HW,2013-03-17 17:43:00,
2013-03-17 09:48:00,2.8,-3.9,29.76,NNE,23,0.0,0.0,73,0.00,,,0.00,WUHU216HW,2013-03-17 17:48:00,
2013-03-17 09:53:00,3.0,-3.7,29.76,NNE,23,0.0,0.0,73,0.00,,,0.00,WUHU216HW,2013-03-17 17:53:00,
2013-03-17 09:58:00,3.9,-2.6,29.76,NNE,23,0.0,0.0,74,0.00,,,0.00,WUHU216HW,2013-03-17 17:58:00,
2013-03-17 10:03:00,8.2,2.5,29.76,NNE,23,0.0,0.0,77,0.00,,,0.00,WUHU216HW,2013-03-17 18:03:00,
2013-03-17 10:08:00,8.9,2.6,29.76,NE,45,0.0,0.0,75,0.00,,,0.00,WUHU216HW,2013-03-17 18:08:00,
2013-03-17 10:13:00,12.5,6.3,29.76,NE,45,0.0,0.0,76,0.00,,,0.00,WUHU216HW,2013-03-17 18:13:00,
2013-03-17 10:18:00,14.5,6.5,29.76,NE,45,0.0,0.0,70,0.00,,,0.00,WUHU216HW,2013-03-17 18:18:00,
2013-03-17 10:23:00,14.0,5.3,29.76,NE,45,0.0,0.0,68,0.00,,,0.00,WUHU216HW,2013-03-17 18:23:00,
2013-03-17 10:28:00,13.2,4.6,29.76,NE,45,0.0,0.0,68,0.00,,,0.00,WUHU216HW,2013-03-17 18:28:00,
2013-03-17 10:33:00,12.7,3.7,29.76,NE,45,0.0,0.0,67,0.00,,,0.00,WUHU216HW,2013-03-17 18:33:00,
2013-03-17 10:38:00,12.5,3.6,29.76,NE,45,0.0,0.0,67,0.00,,,0.00,WUHU216HW,2013-03-17 18:38:00,
2013-03-17 10:43:00,12.3,3.4,29.76,NE,45,0.0,0.0,67,0.00,,,0.00,WUHU216HW,2013-03-17 18:43:00,
2013-03-17 10:49:00,12.5,3.6,29.76,NE,45,0.0,0.0,67,0.00,,,0.00,WUHU216HW,2013-03-17 18:49:00,
2013-03-17 10:54:00,13.8,5.5,29.76,NE,45,0.0,0.0,69,0.00,,,0.00,WUHU216HW,2013-03-17 18:54:00,
2013-03-17 10:59:00,15.6,7.1,29.76,NE,45,0.0,0.0,69,0.00,,,0.00,WUHU216HW,2013-03-17 18:59:00,
2013-03-17 11:04:00,16.5,7.0,29.75,NE,45,0.0,0.0,66,0.00,,,0.00,WUHU216HW,2013-03-17 19:04:00,
2013-03-17 11:09:00,16.8,7.0,29.75,NE,45,0.0,0.0,65,0.00,,,0.00,WUHU216HW,2013-03-17 19:09:00,
2013-03-17 11:14:00,17.4,7.2,29.75,NE,45,0.0,0.0,64,0.00,,,0.00,WUHU216HW,2013-03-17 19:14:00,
2013-03-17 11:19:00,17.9,7.7,29.75,NE,45,0.0,0.0,64,0.00,,,0.00,WUHU216HW,2013-03-17 19:19:00,
2013-03-17 11:24:00,19.9,9.2,29.75,NE,45,0.0,0.0,65,0.00,,,0.00,WUHU216HW,2013-03-17 19:24:00,
2013-03-17 11:29:00,21.5,11.5,29.75,NE,45,0.0,0.0,65,0.00,,,0.00,WUHU216HW,2013-03-17 19:29:00,
2013-03-17 11:34:00,22.8,12.0,29.75,NE,45,0.0,0.0,63,0.00,,,0.00,WUHU216HW,2013-03-17 19:34:00,
2013-03-17 11:39:00,23.9,13.0,29.74,NE,45,0.0,0.0,63,0.00,,,0.00,WUHU216HW,2013-03-17 19:39:00,
2013-03-17 11:44:00,25.8,14.5,29.74,NE,45,0.0,0.0,62,0.00,,,0.00,WUHU216HW,2013-03-17 19:44:00,
2013-03-17 11:49:00,27.3,15.6,29.74,NE,45,0.0,0.0,61,0.00,,,0.00,WUHU216HW,2013-03-17 19:49:00,
2013-03-17 11:54:00,28.2,15.7,29.74,NE,45,0.0,0.0,59,0.00,,,0.00,WUHU216HW,2013-03-17 19:54:00,
2013-03-17 11:59:00,28.5,15.2,29.74,NE,45,0.0,0.0,57,0.00,,,0.00,WUHU216HW,2013-03-17 19:59:00,
2013-03-17 12:04:00,28.9,15.1,29.74,NE,45,0.0,0.0,56,0.00,,,0.00,WUHU216HW,2013-03-17 20:04:00,
2013-03-17 12:09:00,29.3,15.0,29.74,NE,45,0.0,0.0,56,0.00,,,0.00,WUHU216HW,2013-03-17 20:09:00,
2013-03-17 12:14:00,31.1,16.7,29.74,NE,45,0.0,0.0,55,0.00,,,0.00,WUHU216HW,2013-03-17 20:14:00,
2013-03-17 12:19:00,32.3,17.4,29.74,NE,45,0.0,0.0,54,0.00,,,0.00,WUHU216HW,2013-03-17 20:19:00,
2013-03-17 12:24:00,34.5,18.5,29.74,NE,45,0.0,0.0,53,0.00,,,0.00,WUHU216HW,2013-03-17 20:24:00,
2013-03-17 12:29:00,35.4,18.6,29.73,NNE,23,0.0,0.0,50,0.00,,,0.00,WUHU216HW,2013-03-17 20:29:00,
2013-03-17 12:34:00,36.5,19.6,29.73,North,0,0.0,0.0,50,0.00,,,0.00,WUHU216HW,2013-03-17 20:34:00,
2013-03-17 12:39:00,36.8,17.9,29.73,NNE,23,0.0,0.0,48,0.00,,,0.00,WUHU216HW,2013-03-17 20:39:00,
2013-03-17 12:44:00,36.3,17.4,29.74,NNE,23,0.0,0.0,46,0.00,,,0.00,WUHU216HW,2013-03-17 20:44:00,
2013-03-17 12:49:00,36.5,17.5,29.74,NNE,23,0.0,0.0,46,0.00,,,0.00,WUHU216HW,2013-03-17 20:49:00,
2013-03-17 12:54:00,38.3,19.7,29.74,NNE,23,0.0,0.0,47,0.00,,,0.00,WUHU216HW,2013-03-17 20:54:00,
2013-03-17 12:59:00,42.9,23.5,29.74,NNE,23,0.0,0.0,46,0.00,,,0.00,WUHU216HW,2013-03-17 20:59:00,
2013-03-17 13:04:00,46.2,24.2,29.74,NNE,23,0.0,0.0,42,0.00,,,0.00,WUHU216HW,2013-03-17 21:04:00,
2013-03-17 13:09:00,48.9,27.4,29.74,NNE,23,0.0,0.0,41,0.00,,,0.00,WUHU216HW,2013-03-17 21:09:00,
2013-03-17 13:14:00,52.8,26.4,29.74,NE,45,0.0,0.0,36,0.00,,,0.00,WUHU216HW,2013-03-17 21:14:00,
2013-03-17 13:19:00,54.5,27.8,29.73,NE,45,0.0,0.0,36,0.00,,,0.00,WUHU216HW,2013-03-17 21:19:00,
2013-03-17 13:24:00,56.8,29.2,29.74,NW,315,0.0,0.0,35,0.00,,,0.00,WUHU216HW,2013-03-17 21:24:00,
2013-03-17 13:29:00,57.5,28.4,29.73,West,270,0.0,0.0,33,0.00,,,0.00,WUHU216HW,2013-03-17 21:29:00,
2013-03-17 13:34:00,58.2,28.4,29.73,WNW,293,0.0,0.0,32,0.00,,,0.00,WUHU216HW,2013-03-17 21:34:00,
2013-03-17 13:39:00,58.8,28.2,29.74,WNW,293,0.0,0.0,31,0.00,,,0.00,WUHU216HW,2013-03-17 21:39:00,
2013-03-17 13:44:00,59.3,28.6,29.74,West,270,0.0,0.0,31,0.00,,,0.00,WUHU216HW,2013-03-17 21:44:00,
2013-03-17 13:49:00,59.7,28.2,29.73,West,270,0.0,0.0,30,0.00,,,0.00,WUHU216HW,2013-03-17 21:49:00,
2013-03-17 13:54:00,60.0,27.5,29.73,West,270,0.0,0.0,29,0.00,,,0.00,WUHU216HW,2013-03-17 21:54:00,
2013-03-17 13:59:00,60.4,27.8,29.73,WNW,293,2.9,2.9,29,0.00,,,0.00,WUHU216HW,2013-03-17 21:59:00,
2013-03-17 14:04:00,60.6,27.0,29.73,NNW,338,2.4,2.9,28,0.00,,,0.00,WUHU216HW,2013-03-17 22:04:00,
2013-03-17 14:09:00,59.9,25.5,29.73,SE,135,0.0,2.9,28,0.00,,,0.00,WUHU216HW,2013-03-17 22:09:00,
2013-03-17 14:14:00,59.1,24.9,29.73,SSW,203,0.0,0.0,27,0.00,,,0.00,WUHU216HW,2013-03-17 22:14:00,
2013-03-17 14:19:00,59.7,26.3,29.73,NW,315,0.0,0.0,28,0.00,,,0.00,WUHU216HW,2013-03-17 22:19:00,
2013-03-17 14:24:00,60.6,27.6,29.73,West,270,0.0,0.0,28,0.00,,,0.00,WUHU216HW,2013-03-17 22:24:00,
2013-03-17 14:29:00,62.2,27.5,29.73,West,270,0.0,0.0,27,0.00,,,0.00,WUHU216HW,2013-03-17 22:29:00,
2013-03-17 14:34:00,61.3,25.7,29.73,NNE,23,0.0,0.0,26,0.00,,,0.00,WUHU216HW,2013-03-17 22:34:00,
2013-03-17 14:39:00,60.6,25.1,29.73,NNE,23,0.0,0.0,26,0.00,,,0.00,WUHU216HW,2013-03-17 22:39:00,
2013-03-17 14:44:00,61.3,25.7,29.73,West,270,0.0,0.0,26,0.00,,,0.00,WUHU216HW,2013-03-17 22:44:00,
2013-03-17 14:50:00,61.7,26.0,29.73,West,270,0.0,0.0,26,0.00,,,0.00,WUHU216HW,2013-03-17 22:50:00,
2013-03-17 14:54:00,60.9,24.4,29.73,North,0,2.2,3.5,25,0.00,,,0.00,WUHU216HW,2013-03-17 22:54:00,
2013-03-17 15:00:00,60.4,24.0,29.72,WSW,248,0.0,3.5,25,0.00,,,0.00,WUHU216HW,2013-03-17 23:00:00,
2013-03-17 15:05:00,60.4,24.0,29.72,SW,225,0.0,2.2,25,0.00,,,0.00,WUHU216HW,2013-03-17 23:05:00,
2013-03-17 15:10:00,59.7,23.4,29.72,West,270,0.0,0.0,25,0.00,,,0.00,WUHU216HW,2013-03-17 23:10:00,
2013-03-17 15:15:00,56.8,20.9,29.71,NNW,338,0.0,0.0,25,0.00,,,0.00,WUHU216HW,2013-03-17 23:15:00,
2013-03-17 15:20:00,52.8,17.6,29.71,NW,315,0.0,0.0,25,0.00,,,0.00,WUHU216HW,2013-03-17 23:20:00,
2013-03-17 15:25:00,47.8,14.2,29.71,North,0,0.0,0.0,26,0.00,,,0.00,WUHU216HW,2013-03-17 23:25:00,
2013-03-17 15:30:00,45.1,12.8,29.71,NW,315,0.0,0.0,27,0.00,,,0.00,WUHU216HW,2013-03-17 23:30:00,
2013-03-17 15:35:00,41.5,10.6,29.71,WNW,293,2.6,2.6,28,0.00,,,0.00,WUHU216HW,2013-03-17 23:35:00,
2013-03-17 15:40:00,40.1,11.2,29.71,WNW,293,4.0,7.1,30,0.00,,,0.00,WUHU216HW,2013-03-17 23:40:00,
2013-03-17 15:45:00,38.8,10.0,29.70,WNW,293,5.5,7.1,30,0.00,,,0.00,WUHU216HW,2013-03-17 23:45:00,
2013-03-17 15:50:00,37.9,10.5,29.71,SW,225,0.0,6.2,32,0.00,,,0.00,WUHU216HW,2013-03-17 23:50:00,
2013-03-17 15:55:00,37.2,9.9,29.70,NW,315,3.5,6.2,32,0.00,,,0.00,WUHU216HW,2013-03-17 23:55:00,
2013-03-17 16:00:00,36.8,10.8,29.70,WNW,293,0.0,3.5,34,0.00,,,0.00,WUHU216HW,2013-03-18 00:00:00,
2013-03-17 16:05:00,36.3,10.4,29.70,NW,315,0.0,2.2,34,0.00,,,0.00,WUHU216HW,2013-03-18 00:05:00,
2013-03-17 16:10:00,36.1,10.8,29.70,WNW,293,3.3,3.3,35,0.00,,,0.00,WUHU216HW,2013-03-18 00:10:00,
2013-03-17 16:15:00,35.4,10.2,29.70,NE,45,0.0,3.3,35,0.00,,,0.00,WUHU216HW,2013-03-18 00:15:00,
2013-03-17 16:20:00,35.2,10.7,29.70,WNW,293,7.1,7.1,36,0.00,,,0.00,WUHU216HW,2013-03-18 00:20:00,
2013-03-17 16:25:00,34.8,10.4,29.69,WNW,293,0.0,7.1,36,0.00,,,0.00,WUHU216HW,2013-03-18 00:25:00,
2013-03-17 16:30:00,34.7,10.9,29.69,WNW,293,5.3,7.1,37,0.00,,,0.00,WUHU216HW,2013-03-18 00:30:00,
2013-03-17 16:35:00,34.3,10.5,29.69,NW,315,4.0,6.4,37,0.00,,,0.00,WUHU216HW,2013-03-18 00:35:00,
2013-03-17 16:40:00,34.3,9.9,29.69,West,270,8.7,8.7,36,0.00,,,0.00,WUHU216HW,2013-03-18 00:40:00,
2013-03-17 16:45:00,33.9,10.2,29.69,NW,315,0.0,8.7,38,0.00,,,0.00,WUHU216HW,2013-03-18 00:45:00,
2013-03-17 16:50:00,33.8,10.1,29.69,WNW,293,0.0,5.1,37,0.00,,,0.00,WUHU216HW,2013-03-18 00:50:00,
2013-03-17 16:55:00,33.6,9.9,29.69,WSW,248,0.0,5.3,37,0.00,,,0.00,WUHU216HW,2013-03-18 00:55:00,
2013-03-17 17:00:00,33.6,9.9,29.69,WNW,293,3.3,5.3,37,0.00,,,0.00,WUHU216HW,2013-03-18 01:00:00,
2013-03-17 17:05:00,33.6,10.5,29.69,WNW,293,0.0,6.9,38,0.00,,,0.00,WUHU216HW,2013-03-18 01:05:00,
2013-03-17 17:10:00,33.6,10.5,29.69,North,0,0.0,6.9,38,0.00,,,0.00,WUHU216HW,2013-03-18 01:10:00,
2013-03-17 17:15:00,33.4,10.4,29.69,WNW,293,0.6,4.4,38,0.00,,,0.00,WUHU216HW,2013-03-18 01:15:00,
2013-03-17 17:20:00,33.6,11.2,29.69,North,0,3.3,3.3,39,0.00,,,0.00,WUHU216HW,2013-03-18 01:20:00,
2013-03-17 17:25:00,33.4,10.4,29.69,West,270,0.0,3.3,38,0.00,,,0.00,WUHU216HW,2013-03-18 01:25:00,
2013-03-17 17:30:00,33.0,10.1,29.68,NNW,338,4.2,4.2,38,0.00,,,0.00,WUHU216HW,2013-03-18 01:30:00,
2013-03-17 17:35:00,32.9,10.5,29.69,NNE,23,0.0,4.2,39,0.00,,,0.00,WUHU216HW,2013-03-18 01:35:00,
2013-03-17 17:40:00,32.7,10.4,29.69,North,0,1.1,4.2,39,0.00,,,0.00,WUHU216HW,2013-03-18 01:40:00,
2013-03-17 17:45:00,32.5,10.2,29.69,North,0,6.4,6.4,39,0.00,,,0.00,WUHU216HW,2013-03-18 01:45:00,
2013-03-17 17:50:00,32.3,10.0,29.69,NNE,23,0.0,6.4,39,0.00,,,0.00,WUHU216HW,2013-03-18 01:50:00,
2013-03-17 17:55:00,32.1,9.9,29.69,NNW,338,0.0,6.4,39,0.00,,,0.00,WUHU216HW,2013-03-18 01:55:00,
2013-03-17 18:01:00,32.0,9.7,29.69,WNW,293,0.0,2.4,39,0.00,,,0.00,WUHU216HW,2013-03-18 02:01:00,
2013-03-17 18:06:00,31.8,9.6,29.68,WNW,293,2.6,2.6,39,0.00,,,0.00,WUHU216HW,2013-03-18 02:06:00,
2013-03-17 18:11:00,31.8,10.2,29.68,NNE,23,0.0,2.6,40,0.00,,,0.00,WUHU216HW,2013-03-18 02:11:00,
2013-03-17 18:16:00,31.8,10.0,29.68,WNW,293,2.4,2.6,40,0.00,,,0.00,WUHU216HW,2013-03-18 02:16:00,
2013-03-17 18:21:00,31.6,10.0,29.68,NNW,338,0.0,2.4,40,0.00,,,0.00,WUHU216HW,2013-03-18 02:21:00,
2013-03-17 18:26:00,31.4,10.4,29.68,NNW,338,0.0,4.4,41,0.00,,,0.00,WUHU216HW,2013-03-18 02:26:00,
2013-03-17 18:31:00,31.2,10.2,29.68,North,0,1.1,4.4,41,0.00,,,0.00,WUHU216HW,2013-03-18 02:31:00,
2013-03-17 18:36:00,31.2,10.7,29.68,West,270,0.0,1.1,42,0.00,,,0.00,WUHU216HW,2013-03-18 02:36:00,
2013-03-17 18:41:00,30.9,10.4,29.68,WNW,293,4.4,4.6,42,0.00,,,0.00,WUHU216HW,2013-03-18 02:41:00,
2013-03-17 18:47:00,30.7,10.7,29.67,NW,315,2.2,4.6,43,0.00,,,0.00,WUHU216HW,2013-03-18 02:47:00,
2013-03-17 18:52:00,30.7,10.7,29.68,WNW,293,2.0,6.9,43,0.00,,,0.00,WUHU216HW,2013-03-18 02:52:00,
2013-03-17 18:57:00,30.5,10.6,29.68,NNW,338,6.2,7.1,43,0.00,,,0.00,WUHU216HW,2013-03-18 02:57:00,
2013-03-17 19:02:00,30.3,10.4,29.68,NNW,338,0.0,7.1,43,0.00,,,0.00,WUHU216HW,2013-03-18 03:02:00,
2013-03-17 19:07:00,30.0,10.1,29.68,NNW,338,0.0,0.0,43,0.00,,,0.00,WUHU216HW,2013-03-18 03:07:00,
2013-03-17 19:12:00,30.0,10.1,29.67,WNW,293,0.0,0.0,43,0.00,,,0.00,WUHU216HW,2013-03-18 03:12:00,
2013-03-17 19:17:00,29.4,9.6,29.68,NW,315,0.0,0.0,43,0.00,,,0.00,WUHU216HW,2013-03-18 03:17:00,
2013-03-17 19:22:00,29.4,10.1,29.68,NW,315,0.0,0.0,44,0.00,,,0.00,WUHU216HW,2013-03-18 03:22:00,
2013-03-17 19:27:00,29.1,9.8,29.67,WNW,293,1.7,1.7,44,0.00,,,0.00,WUHU216HW,2013-03-18 03:27:00,
2013-03-17 19:32:00,28.9,10.1,29.68,WNW,293,0.0,1.7,45,0.00,,,0.00,WUHU216HW,2013-03-18 03:32:00,
2013-03-17 19:37:00,28.5,10.3,29.67,WNW,293,0.0,0.0,46,0.00,,,0.00,WUHU216HW,2013-03-18 03:37:00,
2013-03-17 19:42:00,28.2,10.0,29.68,WNW,293,0.0,0.0,46,0.00,,,0.00,WUHU216HW,2013-03-18 03:42:00,
2013-03-17 19:47:00,27.6,9.9,29.68,WNW,293,0.0,0.0,47,0.00,,,0.00,WUHU216HW,2013-03-18 03:47:00,
2013-03-17 19:52:00,27.3,9.6,29.68,WNW,293,0.0,0.0,47,0.00,,,0.00,WUHU216HW,2013-03-18 03:52:00,
2013-03-17 19:57:00,27.1,9.4,29.68,WNW,293,0.0,0.0,47,0.00,,,0.00,WUHU216HW,2013-03-18 03:57:00,
2013-03-17 20:00:00,26.7,9.5,29.68,WNW,293,0.0,0.0,48,0.00,,,0.00,WUHU216HW,2013-03-18 04:00:00,
2013-03-17 20:05:00,26.0,8.9,29.68,WNW,293,0.0,0.0,48,0.00,,,0.00,WUHU216HW,2013-03-18 04:05:00,
2013-03-17 20:10:00,25.5,8.9,29.68,WNW,293,0.0,0.0,49,0.00,,,0.00,WUHU216HW,2013-03-18 04:10:00,
2013-03-17 20:15:00,24.9,8.4,29.68,WNW,293,0.0,0.0,49,0.00,,,0.00,WUHU216HW,2013-03-18 04:15:00,
2013-03-17 20:20:00,24.6,8.6,29.68,WNW,293,0.0,0.0,50,0.00,,,0.00,WUHU216HW,2013-03-18 04:20:00,
2013-03-17 20:25:00,24.4,8.4,29.68,WNW,293,0.0,0.0,50,0.00,,,0.00,WUHU216HW,2013-03-18 04:25:00,
2013-03-17 20:30:00,24.0,8.5,29.68,WNW,293,0.0,0.0,51,0.00,,,0.00,WUHU216HW,2013-03-18 04:30:00,
2013-03-17 20:35:00,24.0,8.5,29.68,WNW,293,0.0,0.0,51,0.00,,,0.00,WUHU216HW,2013-03-18 04:35:00,
2013-03-17 20:40:00,23.9,8.3,29.68,WNW,293,0.0,0.0,51,0.00,,,0.00,WUHU216HW,2013-03-18 04:40:00,
2013-03-17 20:45:00,23.5,8.4,29.68,West,270,0.0,0.0,52,0.00,,,0.00,WUHU216HW,2013-03-18 04:45:00,
2013-03-17 20:50:00,23.5,8.4,29.68,West,270,0.0,0.0,52,0.00,,,0.00,WUHU216HW,2013-03-18 04:50:00,
2013-03-17 20:55:00,23.3,8.6,29.68,West,270,0.0,0.0,53,0.00,,,0.00,WUHU216HW,2013-03-18 04:55:00,
2013-03-17 21:01:00,22.8,8.1,29.68,West,270,0.0,0.0,53,0.00,,,0.00,WUHU216HW,2013-03-18 05:01:00,
2013-03-17 21:06:00,22.6,8.3,29.68,West,270,0.0,0.0,54,0.00,,,0.00,WUHU216HW,2013-03-18 05:06:00,
2013-03-17 21:11:00,22.1,7.8,29.68,West,270,0.0,0.0,54,0.00,,,0.00,WUHU216HW,2013-03-18 05:11:00,
2013-03-17 21:16:00,21.7,7.9,29.68,West,270,0.0,0.0,55,0.00,,,0.00,WUHU216HW,2013-03-18 05:16:00,
2013-03-17 21:20:00,21.3,7.5,29.68,West,270,0.0,0.0,55,0.00,,,0.00,WUHU216HW,2013-03-18 05:20:00,
2013-03-17 21:21:00,21.3,7.5,29.68,West,270,0.0,0.0,55,0.00,,,0.00,WUHU216HW,2013-03-18 05:21:00,